• In Hungary
  • List of Countries
  • For 7 days
  • Water Temperature
  • Satellite Maps
  • Weather Map
  • News
  • Weather Widgets
  • user-avatar
    Login

    Hourly Weather Encamp

    Today, 23 November, Thursday

    Time Temperature Precipitation Wind Pressure Humidity
    00:00 +1°C° 0 mm 2 mps 620 mmHg 46%
    01:00 +1°C° 0 mm 2 mps 620 mmHg 45%
    02:00 +2°C° 0 mm 1 mps 620 mmHg 44%
    03:00 +2°C° 0 mm 1 mps 620 mmHg 43%
    04:00 +2°C° 0 mm 1 mps 621 mmHg 43%
    05:00 +3°C° 0 mm 1 mps 621 mmHg 43%
    06:00 +3°C° 0 mm 1 mps 621 mmHg 43%
    07:00 +5°C° 0 mm 1 mps 622 mmHg 44%
    08:00 +6°C° 0 mm 1 mps 623 mmHg 44%
    09:00 +8°C° 0 mm 1 mps 624 mmHg 44%
    10:00 +9°C° 0 mm 1 mps 624 mmHg 42%
    11:00 +9°C° 0 mm 2 mps 625 mmHg 40%
    12:00 +12°C° 0 mm 2 mps 626 mmHg 37%
    13:00 +10°C° 0 mm 2 mps 625 mmHg 41%
    14:00 +10°C° 0 mm 2 mps 625 mmHg 45%
    15:00 +9°C° 0 mm 2 mps 625 mmHg 48%
    16:00 +7°C° 0 mm 2 mps 624 mmHg 54%
    17:00 +6°C° 0 mm 1 mps 624 mmHg 60%
    18:00 +4°C° 0 mm 1 mps 623 mmHg 66%
    19:00 +4°C° 0 mm 1 mps 623 mmHg 65%
    20:00 +4°C° 0 mm 1 mps 624 mmHg 65%
    21:00 +4°C° 0 mm 1 mps 624 mmHg 65%
    22:00 +4°C° 0 mm 1 mps 624 mmHg 66%
    23:00 +4°C° 0 mm 1 mps 624 mmHg 67%

    Tomorrow, 24 November, Friday

    Time Temperature Precipitation Wind Pressure Humidity
    00:00 +4°C° 0 mm 1 mps 624 mmHg 68%
    01:00 +4°C° 0 mm 1 mps 623 mmHg 66%
    02:00 +4°C° 0 mm 1 mps 623 mmHg 65%
    03:00 +4°C° 0 mm 1 mps 623 mmHg 64%
    04:00 +4°C° 0 mm 1 mps 623 mmHg 65%
    05:00 +3°C° 0 mm 2 mps 623 mmHg 66%
    06:00 +3°C° 0 mm 2 mps 624 mmHg 66%
    07:00 +4°C° 0.1 mm 2 mps 624 mmHg 67%
    08:00 +6°C° 0.1 mm 1 mps 624 mmHg 67%
    09:00 +6°C° 0.1 mm 1 mps 625 mmHg 67%
    10:00 +6°C° 0 mm 2 mps 625 mmHg 66%
    11:00 +7°C° 0 mm 2 mps 625 mmHg 65%
    12:00 +8°C° 0 mm 2 mps 625 mmHg 64%
    13:00 +8°C° 0 mm 2 mps 625 mmHg 66%
    14:00 +8°C° 0 mm 2 mps 625 mmHg 67%
    15:00 +8°C° 0 mm 2 mps 624 mmHg 69%
    16:00 +6°C° 0 mm 2 mps 624 mmHg 75%
    17:00 +5°C° 0 mm 1 mps 623 mmHg 80%
    18:00 +4°C° 0 mm 1 mps 623 mmHg 86%
    19:00 +4°C° 0 mm 1 mps 623 mmHg 83%
    20:00 +4°C° 0 mm 1 mps 623 mmHg 81%
    21:00 +4°C° 0 mm 1 mps 623 mmHg 79%
    22:00 +4°C° 0 mm 1 mps 623 mmHg 80%
    23:00 +3°C° 0 mm 2 mps 623 mmHg 82%

    Day after tomorrow, 25 November, Saturday

    Time Temperature Precipitation Wind Pressure Humidity
    00:00 +3°C° 0 mm 2 mps 623 mmHg 84%
    01:00 +3°C° 0 mm 2 mps 623 mmHg 85%
    02:00 +3°C° 0 mm 2 mps 622 mmHg 86%
    03:00 +3°C° 0 mm 2 mps 622 mmHg 87%
    04:00 +3°C° 0.1 mm 2 mps 622 mmHg 87%
    05:00 +2°C° 0.1 mm 2 mps 622 mmHg 87%
    06:00 +2°C° 0.1 mm 2 mps 622 mmHg 88%
    07:00 +3°C° 0.1 mm 2 mps 623 mmHg 85%
    08:00 +4°C° 0.1 mm 2 mps 624 mmHg 82%
    09:00 +5°C° 0.1 mm 2 mps 624 mmHg 80%
    10:00 +4°C° 0.1 mm 3 mps 625 mmHg 77%
    11:00 +5°C° 0.1 mm 3 mps 625 mmHg 74%
    12:00 +5°C° 0.1 mm 3 mps 626 mmHg 71%
    13:00 +5°C° 0.1 mm 3 mps 626 mmHg 73%
    14:00 +4°C° 0.1 mm 3 mps 626 mmHg 74%
    15:00 +4°C° 0.1 mm 3 mps 626 mmHg 75%
    16:00 +3°C° 0 mm 3 mps 626 mmHg 77%
    17:00 +2°C° 0 mm 3 mps 626 mmHg 79%
    18:00 +2°C° 0 mm 2 mps 626 mmHg 82%
    19:00 +1°C° 0 mm 2 mps 626 mmHg 83%
    20:00 -1°C° 0 mm 2 mps 626 mmHg 84%
    21:00 -1°C° 0 mm 2 mps 627 mmHg 85%
    22:00 -2°C° 0 mm 2 mps 627 mmHg 85%
    23:00 -2°C° 0 mm 2 mps 627 mmHg 85%

    26 November, Sunday

    Time Temperature Precipitation Wind Pressure Humidity
    00:00 -3°C° 0 mm 2 mps 626 mmHg 85%
    01:00 -3°C° 0 mm 2 mps 626 mmHg 85%
    02:00 -3°C° 0 mm 2 mps 626 mmHg 84%
    03:00 -4°C° 0 mm 2 mps 626 mmHg 84%
    04:00 -4°C° 0 mm 2 mps 626 mmHg 83%
    05:00 -4°C° 0 mm 2 mps 626 mmHg 82%
    06:00 -5°C° 0 mm 2 mps 626 mmHg 81%
    07:00 -4°C° 0 mm 2 mps 627 mmHg 72%
    08:00 -3°C° 0 mm 2 mps 628 mmHg 63%
    09:00 -1°C° 0 mm 2 mps 629 mmHg 54%
    10:00 +1°C° 0 mm 2 mps 629 mmHg 51%
    11:00 +2°C° 0 mm 2 mps 629 mmHg 47%
    12:00 +3°C° 0 mm 2 mps 630 mmHg 44%
    13:00 +3°C° 0 mm 2 mps 629 mmHg 46%
    14:00 +3°C° 0 mm 2 mps 629 mmHg 48%
    15:00 +2°C° 0 mm 2 mps 629 mmHg 50%
    16:00 +1°C° 0 mm 2 mps 628 mmHg 59%
    17:00 -2°C° 0 mm 2 mps 628 mmHg 67%
    18:00 -2°C° 0 mm 1 mps 627 mmHg 75%
    19:00 -2°C° 0 mm 1 mps 627 mmHg 73%
    20:00 -2°C° 0 mm 1 mps 628 mmHg 71%
    21:00 -2°C° 0 mm 1 mps 628 mmHg 68%
    22:00 -2°C° 0 mm 1 mps 628 mmHg 66%
    23:00 -2°C° 0 mm 1 mps 627 mmHg 64%

    27 November, Monday

    Time Temperature Precipitation Wind Pressure Humidity
    00:00 -2°C° 0 mm 1 mps 627 mmHg 62%
    01:00 -2°C° 0 mm 1 mps 627 mmHg 62%
    02:00 -2°C° 0 mm 1 mps 627 mmHg 61%
    03:00 -2°C° 0 mm 1 mps 627 mmHg 60%
    04:00 -2°C° 0 mm 1 mps 627 mmHg 60%
    05:00 -2°C° 0 mm 1 mps 627 mmHg 59%
    06:00 -2°C° 0 mm 1 mps 627 mmHg 58%
    07:00 -1°C° 0 mm 1 mps 627 mmHg 54%
    08:00 0°C° 0 mm 0 mps 628 mmHg 50%
    09:00 +1°C° 0 mm 0 mps 628 mmHg 46%
    10:00 +3°C° 0 mm 1 mps 628 mmHg 43%
    11:00 +4°C° 0 mm 1 mps 628 mmHg 40%
    12:00 +6°C° 0 mm 1 mps 629 mmHg 38%
    13:00 +5°C° 0 mm 1 mps 628 mmHg 41%
    14:00 +5°C° 0 mm 1 mps 628 mmHg 45%
    15:00 +4°C° 0 mm 1 mps 627 mmHg 48%
    16:00 +3°C° 0 mm 1 mps 626 mmHg 55%
    17:00 +1°C° 0 mm 1 mps 626 mmHg 62%
    18:00 -1°C° 0 mm 1 mps 625 mmHg 69%
    19:00 -1°C° 0 mm 1 mps 625 mmHg 69%
    20:00 -1°C° 0 mm 1 mps 625 mmHg 68%
    21:00 -1°C° 0 mm 1 mps 625 mmHg 67%
    22:00 -1°C° 0 mm 1 mps 624 mmHg 66%
    23:00 -1°C° 0 mm 1 mps 624 mmHg 65%

    28 November, Tuesday

    Time Temperature Precipitation Wind Pressure Humidity
    00:00 -1°C° 0 mm 1 mps 624 mmHg 64%
    01:00 -1°C° 0 mm 1 mps 623 mmHg 62%
    02:00 -1°C° 0 mm 1 mps 623 mmHg 60%
    03:00 -1°C° 0 mm 1 mps 623 mmHg 58%
    04:00 -1°C° 0 mm 1 mps 622 mmHg 56%
    05:00 -1°C° 0 mm 1 mps 622 mmHg 54%
    06:00 -1°C° 0 mm 1 mps 622 mmHg 52%
    07:00 0°C° 0 mm 1 mps 622 mmHg 49%
    08:00 +2°C° 0 mm 1 mps 623 mmHg 45%
    09:00 +3°C° 0 mm 1 mps 623 mmHg 42%
    10:00 +5°C° 0 mm 1 mps 623 mmHg 44%
    11:00 +6°C° 0 mm 1 mps 623 mmHg 46%
    12:00 +6°C° 0 mm 2 mps 623 mmHg 47%
    13:00 +5°C° 0.1 mm 2 mps 622 mmHg 54%
    14:00 +5°C° 0.1 mm 2 mps 621 mmHg 61%
    15:00 +5°C° 0.1 mm 1 mps 621 mmHg 68%
    16:00 +4°C° 0.5 mm 1 mps 620 mmHg 74%
    17:00 +3°C° 0.5 mm 1 mps 620 mmHg 81%
    18:00 +2°C° 0.5 mm 1 mps 619 mmHg 88%
    19:00 +1°C° 0.5 mm 0 mps 619 mmHg 90%
    20:00 +1°C° 0.5 mm 0 mps 619 mmHg 92%
    21:00 +1°C° 0.5 mm 0 mps 619 mmHg 93%
    22:00 +1°C° 0.5 mm 0 mps 618 mmHg 94%
    23:00 0°C° 0.5 mm 0 mps 618 mmHg 94%
    Show more